• MPC Preparation (Info)

  • MPEC 2014-J47 : 2014 JF15

    The following Minor Planet Electronic Circular may be linked-to from your own Web pages, but must not otherwise be redistributed electronically.

    A form allowing access to any MPEC is at the bottom of this page.


    Read MPEC 2014-J46 Read MPEC 2014-J48


    M.P.E.C. 2014-J47                                Issued 2014 May 5, 14:25 UT
    
         The Minor Planet Electronic Circulars contain information on unusual
             minor planets and routine data on comets.  They are published
       on behalf of Commission 20 of the International Astronomical Union by the
              Minor Planet Center, Smithsonian Astrophysical Observatory,
                              Cambridge, MA 02138, U.S.A.
    
                 Prepared using the Tamkin Foundation Computer Network
    
                                  MPC@CFA.HARVARD.EDU
                URL https://www.minorplanetcenter.net/    ISSN 1523-6714
    
                                       2014 JF15
    
    Observations:
         K14J15F* C2014 05 03.26896 13 54 37.71 -01 53 14.9          20.4 VqEJ047G96
         K14J15F  C2014 05 03.27911 13 54 39.05 -01 52 07.6          20.4 VqEJ047G96
         K14J15F  C2014 05 03.28416 13 54 39.74 -01 51 34.3          21.0 VqEJ047G96
         K14J15F  C2014 05 03.30738 13 54 42.87 -01 49 00.4          20.7 VqEJ047G96
         K14J15F  C2014 05 03.30860 13 54 42.99 -01 48 52.2          21.5 VqEJ047G96
         K14J15F  C2014 05 03.30983 13 54 43.23 -01 48 43.9          20.7 VqEJ047G96
         K14J15F  C2014 05 03.31105 13 54 43.34 -01 48 36.4          21.0 VqEJ047G96
         K14J15F  C2014 05 03.33336613 54 46.04 -01 46 11.5          20.2 RtEJ047H01
         K14J15F  C2014 05 03.34230113 54 47.28 -01 45 12.5          20.7 RtEJ047H01
         K14J15F  C2014 05 03.34791313 54 48.06 -01 44 35.5          20.6 RtEJ047H01
         K14J15F  C2014 05 03.35358613 54 48.85 -01 43 58.1          20.4 RtEJ047H01
         K14J15F  C2014 05 03.41034213 54 56.98 -01 37 45.4          20.8 RtEJ047H01
         K14J15F  C2014 05 03.41751513 54 58.03 -01 36 58.4          20.4 RtEJ047H01
         K14J15F  C2014 05 03.42395713 54 59.01 -01 36 16.3          20.6 RtEJ047H01
         K14J15F  C2014 05 04.15333413 57 08.56 -00 19 31.7          21.0 RtEJ047H01
         K14J15F  C2014 05 04.15800113 57 09.18 -00 19 03.5          20.8 RtEJ047H01
         K14J15F  C2014 05 04.17066913 57 10.84 -00 17 46.0          21.8 RtEJ047H01
         K14J15F  C2014 05 04.17804213 57 11.79 -00 17 01.2          20.7 RtEJ047H01
         K14J15F KC2014 05 04.23132413 57 16.69 -00 11 45.7          20.6 VqEJ047H21
         K14J15F KC2014 05 04.25042013 57 19.06 -00 09 50.0          20.5 VqEJ047H21
         K14J15F  C2014 05 04.27044 13 57 23.81 -00 07 39.0          20.6 VqEJ047G96
         K14J15F  C2014 05 04.27632 13 57 24.49 -00 07 03.1          20.5 VqEJ047G96
         K14J15F  C2014 05 04.28217 13 57 25.24 -00 06 28.1          21.3 VqEJ047G96
         K14J15F  C2014 05 04.28803 13 57 25.93 -00 05 52.5          20.8 VqEJ047G96
         K14J15F  C2014 05 05.36085514 00 08.02 +01 36 35.9          21.0 RtEJ047H01
         K14J15F  C2014 05 05.36856014 00 08.94 +01 37 17.8          21.1 RtEJ047H01
         K14J15F  C2014 05 05.37520714 00 09.74 +01 37 53.7          21.2 RtEJ047H01
         K14J15F  C2014 05 05.38552014 00 11.00 +01 38 49.7          20.9 RtEJ047H01
    
    Observer details:
    G96 Mt. Lemmon Survey.  Observer A. D. Grauer.  Measurers E. J. Christensen,
        A. R. Gibbs, A. D. Grauer, R. E. Hill, J. A. Johnson, R. A. Kowalski,
        S. M. Larson, R. J. Sanders, F. C. Shelly.  1.5-m reflector + CCD.
    H01 Magdalena Ridge Observatory, Socorro.  Observers W. H. Ryan, E. V. Ryan.
        Measurer W. H. Ryan.  2.4-m f/8.9 reflector + CCD.
    H21 Astronomical Research Observatory, Westfield.  Observer R. Holmes.
        Measurers T. Vorobjov, L. Buzzi, S. Foglia, T. Linder.  0.61-m f/4.0
        astrograph + CCD.
    
    Orbital elements:
    2014 JF15                                                Earth MOID = 0.0527 AU
    Epoch 2014 May 23.0 TT = JDT 2456800.5                  MPC
    M  79.27230              (2000.0)            P               Q
    n   0.80492746     Peri.  280.14016     -0.73320571     -0.66906881
    a   1.1445415      Node   218.02856     +0.67514728     -0.69493781
    e   0.1790344      Incl.   11.37229     +0.08115133     -0.26345468
    P   1.22           H   25.3           G   0.15           U   7
    Residuals in seconds of arc
    140503 G96  0.0   0.2-    140503 H01  0.1+  0.0     140504 G96  0.7+  0.2-
    140503 G96  0.2-  0.1-    140503 H01  0.0   0.0     140504 G96  0.0   0.2+
    140503 G96  0.0   0.2-    140503 H01  0.3-  0.0     140504 G96  0.5+  0.1-
    140503 G96  0.3+  0.1+    140503 H01  0.1-  0.1-    140504 G96  0.0   0.2+
    140503 G96  0.4-  0.3+    140504 H01  0.1-  0.1+    140505 H01  0.1+  0.1+
    140503 G96  0.8+  0.5+    140504 H01  0.1-  0.2-    140505 H01  0.0   0.1+
    140503 G96  0.0   0.1-    140504 H01  0.1-  0.1+    140505 H01  0.1-  0.1-
    140503 H01  0.1-  0.1-    140504 H01  0.3-  0.0     140505 H01  0.1-  0.1-
    140503 H01  0.0   0.0     140504 H21  0.1+  0.1-
    140503 H01  0.1+  0.0     140504 H21  0.7-  0.0
    
    Ephemeris:
    2014 JF15                a,e,i = 1.14, 0.18, 11                  q = 0.9396
    Date    TT    R. A. (2000) Decl.     Delta      r     Elong.  Phase     V
    2014 04 05    06 31 38.3 -68 55 11   0.07901 1.0081    93.4    82.1    22.7
    ...
    2014 04 20    12 36 06.6 -43 42 03   0.05263 1.0475   143.9    34.4    20.4
    ...
    2014 04 28    13 35 33.5 -14 15 41   0.06449 1.0701   169.1    10.2    20.2
    ...
    2014 05 04    13 56 39.9 -00 34 20   0.08350 1.0875   160.9    17.7    21.0
    2014 05 05    13 59 17.1 +01 04 06   0.08719 1.0904   159.2    19.2    21.2
    2014 05 06    14 01 43.5 +02 33 44   0.09098 1.0933   157.5    20.7    21.3
    ...
    2014 05 12    14 13 34.8 +09 05 31   0.1157  1.1108   149.0    27.9    22.1
    ...
    2014 05 20    14 24 57.4 +13 34 50   0.1521  1.1342   141.1    34.1    22.9
    ...
    2014 06 04    14 41 33.2 +15 44 59   0.2280  1.1768   131.1    40.5    24.0
    
    A. U. Tomatic                (C) Copyright 2014 MPC           M.P.E.C. 2014-J47
    

    Read MPEC 2014-J46 Read MPEC 2014-J48


    MPEC number:

    Enter an MPEC number in one of the following forms:

    • 1997-B01 (the full form)
    • J97B01 (the packed version of the full form)
    • B01 (the abbreviated form)